Location: *
(32.8140°S, 174.6161°E)
Time: 03:14:31
(UTC+00:00)

CENTAUR R/B - Pass Details

Date: 10 December 2019
Orbit: 773 x 1415 km, 63.4° (Epoch: 18 January)

Event Time Altitude Azimuth Distance (km) Brightness Sun altitude
Rises 16:17:48 0° 204° (SSW) 3,510 5.6 -9.5°
Reaches altitude 10° 16:20:32 10° 198° (SSW) 2,492 4.9 -9.1°
Maximum altitude 16:25:55 45° 125° (SE) 1,089 3.5 -8.1°
Drops below altitude 10° 16:30:56 10° 53° (NE) 2,321 4.8 -7.3°
Sets 16:33:23 0° 46° (NE) 3,243 5.4 -6.8°
